DELTA 1 DEB, 7893

Orbit data source: Space-Track

DELTA 1 DEB, 7893 is space debris in SSO originally from a launch on Sun, 23 Jul 1972 UTC launched from the Air Force Western Test Range (AFWTR). Debris objects in space refer to the collection of defunct objects orbiting the Earth. Examples of debris include non-operational satellites, rocket bodies, and fragments generated from explosions, collisions, or faulty payload assembly.

Loading next visibility...
Identifier
7893, 1972-058BK
Orbit
SSO
Country
Flag of USUS
Related business
Manufacturer
Unknown
Mission
Spacecraft
Bus & Motor
Unknown
Mass
Unknown
Launch date (UTC)
1972-07-23 (53 years ago)
Launch vehicle
Unknown
Launch site
Air Force Western Test Range (AFWTR)
Object type
Payload
Rocket body
Debris
Shape & HBR
Unknown shape, 0.3 m
Radar Cross Section
Medium (>0.1 m² and <1 m²)

Expand to show TLE details & history
Last TLE update: 19 hours ago

TLE from 19 hours ago
0 DELTA 1 DEB
1 07893U 72058BK  25348.76531051  .00000667  00000-0  38941-3 0  9996
2 07893  97.8090  62.9125 0394252 152.2125 210.0715 13.78070131506457
Epoch: 2025-12-14T18:22Z
TLE epoch observation values (Epoch: 2025-12-14T18:22:02.828Z)
Latitude
-0.00001°
Longitude
63.72719°
Altitude
1,227.143 km
Speed
7.115 km/s
True Right ascension
04h 11m 39s
True Declination
0° 00' 00"
Sunlit
Object was in full shadow at epoch
Visualization orbit readout
Latitude
Unknown
Longitude
Unknown
Altitude
Unknown
Speed
Unknown
Apparent Right ascension
Unknown
Apparent Declination
Unknown
Sunlit
N/A
Visualization observer readout
Local Sidereal Time
11:32:14
Azimuth
Unknown
Elevation
Unknown
Doppler factor
Unknown
Orbital elements
Apogee altitude
1,257.527 km
Perigee altitude
678.289 km
Semi-major axis
7,346.045 km
Eccentricity
0.03943
Inclination
97.809°
RAAN
62.9125°
Arg. of periapsis
152.2125°
True anomaly
207.90098°
Mean anomaly
210.0715°
Eccentric anomaly
208.97715°
Mean motion
3.44717 °/min
Orbital period
104.43 mins
BSTAR
0.00038941
Loading maneuver chart data...
Computing Atmospheric mass density...

Documentation

Showing up to 5 results
|